Accueil
METAR-TAF:

METAR-TAF

Aéroports :

Romorantin, France

Pruniers

latitude: 47-19N, longitude: 001-41E, altitude: 85 m

Observation

Le bulletin a été fait il y a 15 minutes, à 19:00 UTC
Vent 10 kt de ouest/nord-ouest, variant entre ouest et nord/nord-ouest
Température 5°C
Humidité 75%
Pression 991 hPa
Visibilité 10 km ou plus
Nuages épars à une hauteur de 3200 ft
Nuages fragmentés à une hauteur de 4800 ft
Nuages fragmentés à une hauteur de 7000 ft

METAR: LFYR 111900Z AUTO 30010KT 260V330 9999 SCT032 BKN048 BKN070 05/01 Q0991

Heure: 20:15 (19:15 UTC)


TAF: absent

Observations et prévisions météorologiques de plus de 4000 aéroports (messages METAR et TAF).

Les stations disponibles sont représentées par des disques jaunes et rouges sur la carte.

Passer la souris dessus pour voir le nom de la station.

Cliquer dessus pour voir les observations et prévisions météorologiques.

Pour changer de carte: cliquez sur les boutons verts avec une croix noire pour zoomer, sur le bouton vert avec un tiret pour effectuer un zoom arrière, ou sur les flèches vertes pour les cartes adjacentes.


METAR-TAF: